Regional Weather Roundup
Issued by NWS

Home | Current Version | Previous Version | Text Only | Print | Product List | Glossary Off
Versions: 1 2 3 4 5 6 7 8 9 10 11 12 13 14 15 16 17 18 19 20 21 22 23 24 25 26 27 28 29 30 31 32 33 34 35 36 37 38 39 40 41 42 43 44 45 46 47 48 49 50

000
ASUS43 KFSD 311202
RWRSD

WEATHER ROUNDUP FOR SOUTH DAKOTA
NATIONAL WEATHER SERVICE SIOUX FALLS SD
700 AM CDT THU JUL 31 2014

NOTE: "FAIR" INDICATES FEW OR NO CLOUDS BELOW 12,000 FEET WITH NO
SIGNIFICANT WEATHER AND/OR OBSTRUCTIONS TO VISIBILITY.


SDZ001>005-009-010-012>017-311300-
NORTHWEST AND NORTH CENTRAL SOUTH DAKOTA

CITY           SKY/WX    TMP DP  RH WIND       PRES   REMARKS
BUFFALO          N/A     57  50  77 N14       30.11R
FAITH            N/A     57  52  83 NW10      30.13R
MOBRIDGE       CLEAR     60  53  77 E10       30.07F
$$

SDZ012>016-024>037-041>051-057-063-072>074-311300-
SOUTHWEST AND SOUTH CENTRAL SOUTH DAKOTA

CITY           SKY/WX    TMP DP  RH WIND       PRES   REMARKS
RAPID CTY ARPT CLEAR     57  46  66 NW10      30.17R
PIERRE         CLEAR     57  54  89 NW3       30.07R
CUSTER         CLEAR     50  38  63 NW6       30.29S
ELLSWORTH AFB  CLEAR     55  48  77 W6        30.16S
PHILIP         CLEAR     54  51  90 W6        30.11R
PINE RIDGE     CLEAR     47  45  93 CALM      30.18R
WINNER         FAIR      55  51  86 W5        30.06R
$$

SDZ004>011-016>023-039-040-311300-
NORTHEAST SOUTH DAKOTA

CITY           SKY/WX    TMP DP  RH WIND       PRES   REMARKS
ABERDEEN       PTCLDY    54  52  93 W3        30.09S
WATERTOWN      CLEAR     52  50  93 CALM      30.09S
SISSETON         N/A     56  54  93 N7        30.06S
$$

SDZ017-020-022-023-036>040-048>070-311300-
SOUTHEAST SOUTH DAKOTA

CITY           SKY/WX    TMP DP  RH WIND       PRES   REMARKS
SIOUX FALLS    MOCLDY    58  56  93 NE3       30.09S
HURON          MOCLDY    57  55  93 N9        30.08R
CHAMBERLAIN    CLEAR     63  56  77 SE8       30.05S
MITCHELL       CLOUDY    66  61  84 W3        30.08R
YANKTON        CLOUDY    61  57  88 S3        30.07F
$$

ABBREVIATIONS USED IN REMARKS
   TC - TEMPERATURE IN CELSIUS
  WCI - WIND CHILL INDEX
   HX - HEAT INDEX
  VSB - VISIBILITY



USA.gov is the U.S. government's official web portal to all federal, state and local government web resources and services.